Change the Weather History Date:

Monday, July 21, 2014

  Actual Average Record
Temperature  
Mean Temperature 82 °F 72 °F  
Max Temperature 90 °F 83 °F 105 °F (1934)
Min Temperature 73 °F 60 °F 46 °F (1992)
Degree Days  
Heating Degree Days 0 0  
Month to date heating degree days 18 2  
Since 1 June heating degree days 43 64  
Since 1 July heating degree days 18 2  
Cooling Degree Days 17 7  
Month to date cooling degree days 96 146  
Year to date cooling degree days 265 298  
Since 1 June cooling degree days 230 266  
Growing Degree Days 32 (Base 50)    
Moisture  
Dew Point 69 °F    
Average Humidity 68    
Maximum Humidity 79    
Minimum Humidity 56    
Precipitation  
Precipitation T in 0.13 in 1.53 in (1919)
Month to date precipitation 1.87 2.61  
Year to date precipitation 25.81 16.38  
Snow  
Snow 0.00 in 0.00 in 0.00 in ()
Month to date snowfall 0.0 0.0  
Since 1 June snowfall 0.0 0.0  
Since 1 July snowfall 0.0 0.0  
Snow Depth 0.00 in    
Sea Level Pressure  
Sea Level Pressure 29.91 in    
Wind  
Wind Speed 10 mph (South)    
Max Wind Speed 18 mph    
Max Gust Speed 24 mph    
Visibility 10 miles    
Events      
T = Trace of Precipitation, MM = Missing Value Source: NWS Daily Summary

Daily Weather History Graph

Daily Weather History Graph

Search for Another Location

Airport or City:

Trip Planner

Search our weather history database for the weather conditions in past years. The results will help you decide how hot, cold, wet, or windy it might be!

Date:

Astronomy

Jul. 21, 2014 Rise Set
Actual Time 5:39 AM CDT 8:44 PM CDT
Civil Twilight 5:04 AM CDT 9:19 PM CDT
Nautical Twilight 4:19 AM CDT 10:04 PM CDT
Astronomical Twilight 3:25 AM CDT 10:57 PM CDT
Moon 1:34 AM CDT (7/21) 4:24 PM CDT (7/21)
Length of Visible Light 16h 14m
Length of Day
15h 04m
Waning Crescent, 24% of the Moon is Illuminated
Jul 21
Waning Crescent
Jul 26
New
Aug 3
First Quarter
Aug 10
Full
Aug 17
Last Quarter

Hourly Weather History & Observations

Time (CDT) Temp. Heat Index Dew Point Humidity Pressure Visibility Wind Dir Wind Speed Gust Speed Precip Events Conditions
12:56 AM 75.0 °F - 64.9 °F 71% 29.88 in 10.0 mi South 10.4 mph - N/A   Overcast
1:56 AM 75.9 °F - 64.9 °F 69% 29.88 in 10.0 mi SSW 8.1 mph - N/A   Overcast
2:56 AM 75.0 °F - 64.9 °F 71% 29.89 in 10.0 mi SSW 6.9 mph - N/A   Overcast
3:56 AM 75.0 °F - 64.9 °F 71% 29.90 in 10.0 mi South 5.8 mph - N/A   Overcast
4:56 AM 73.9 °F - 64.9 °F 73% 29.91 in 10.0 mi South 5.8 mph - N/A   Overcast
5:56 AM 73.0 °F - 64.9 °F 76% 29.92 in 10.0 mi South 6.9 mph - N/A   Overcast
6:56 AM 73.0 °F - 64.9 °F 76% 29.93 in 10.0 mi South 5.8 mph - N/A   Overcast
7:56 AM 73.9 °F - 66.0 °F 76% 29.94 in 10.0 mi SSE 5.8 mph - N/A   Overcast
8:56 AM 75.9 °F - 66.9 °F 74% 29.94 in 10.0 mi South 5.8 mph - N/A   Overcast
9:56 AM 79.0 °F - 68.0 °F 69% 29.94 in 10.0 mi Variable 6.9 mph - N/A   Partly Cloudy
10:56 AM 80.1 °F 82.7 °F 68.0 °F 67% 29.95 in 10.0 mi South 8.1 mph - N/A   Clear
11:56 AM 84.9 °F 89.4 °F 70.0 °F 61% 29.93 in 10.0 mi SSE 5.8 mph - N/A   Clear
12:56 PM 86.0 °F 91.5 °F 71.1 °F 61% 29.92 in 10.0 mi SSE 10.4 mph - N/A   Clear
1:56 PM 87.1 °F 92.8 °F 71.1 °F 59% 29.92 in 10.0 mi SE 15.0 mph - N/A   Scattered Clouds
2:56 PM 88.0 °F 94.7 °F 72.0 °F 59% 29.91 in 10.0 mi South 13.8 mph 19.6 mph N/A   Scattered Clouds
3:56 PM 90.0 °F 96.9 °F 72.0 °F 55% 29.90 in 10.0 mi South 15.0 mph 19.6 mph N/A   Partly Cloudy
4:56 PM 89.1 °F 96.0 °F 72.0 °F 57% 29.90 in 10.0 mi SSE 13.8 mph 19.6 mph N/A   Overcast
5:56 PM 87.1 °F 93.6 °F 72.0 °F 61% 29.89 in 10.0 mi SSE 13.8 mph - N/A   Scattered Clouds
6:56 PM 86.0 °F 92.2 °F 72.0 °F 63% 29.89 in 10.0 mi South 12.7 mph - N/A   Clear
7:56 PM 84.0 °F 89.0 °F 71.1 °F 65% 29.90 in 10.0 mi South 11.5 mph - N/A   Mostly Cloudy
8:56 PM 82.9 °F 87.5 °F 71.1 °F 67% 29.89 in 10.0 mi South 13.8 mph - N/A   Overcast
9:56 PM 81.0 °F 84.4 °F 70.0 °F 69% 29.87 in 10.0 mi SSE 15.0 mph - N/A   Clear
10:56 PM 80.1 °F 82.9 °F 69.1 °F 69% 29.86 in 10.0 mi South 13.8 mph - N/A   Overcast
11:56 PM 80.1 °F 82.9 °F 69.1 °F 69% 29.86 in 10.0 mi South 15.0 mph - N/A   Scattered Clouds